Time,TemperatureF,DewpointF,PressureIn,WindDirection,WindDirectionDegrees,WindSpeedMPH,WindSpeedGustMPH,Humidity,HourlyPrecipIn,Conditions,Clouds,dailyrainin,SolarRadiationWatts/m^2,SoftwareType,DateUTC
2013-07-06 00:01:00,52.0,50.0,-100.00,SW,220,0.0,2.0,93,0.00,,,0.00,0.000000,,2013-07-06 07:01:00,
2013-07-06 00:33:00,51.0,50.0,-100.00,WNW,295,0.0,0.0,95,0.00,,,0.00,0.000000,,2013-07-06 07:33:00,
2013-07-06 00:44:00,51.0,50.0,-100.00,WNW,295,0.0,0.0,95,0.00,,,0.00,0.000000,,2013-07-06 07:44:00,
2013-07-06 00:52:00,51.0,50.0,-100.00,WNW,295,0.0,0.0,95,0.00,,,0.00,0.000000,,2013-07-06 07:52:00,
2013-07-06 01:02:00,51.0,50.0,-100.00,WNW,295,0.0,0.0,95,0.00,,,0.00,0.000000,,2013-07-06 08:02:00,
2013-07-06 01:43:00,49.0,48.0,-100.00,WSW,255,0.0,1.0,96,0.00,,,0.00,0.000000,,2013-07-06 08:43:00,
2013-07-06 01:54:00,49.0,48.0,-100.00,WSW,255,0.0,1.0,96,0.00,,,0.00,0.000000,,2013-07-06 08:54:00,
2013-07-06 02:02:00,49.0,48.0,-100.00,WSW,255,0.0,1.0,96,0.00,,,0.00,0.000000,,2013-07-06 09:02:00,
2013-07-06 03:33:00,50.0,49.0,-100.00,NNE,19,0.0,0.0,96,-99.99,,,0.00,0.000000,,2013-07-06 10:33:00,
2013-07-06 03:43:00,50.0,49.0,-100.00,NNE,19,0.0,0.0,96,-99.99,,,0.00,0.000000,,2013-07-06 10:43:00,
2013-07-06 03:53:00,50.0,49.0,-100.00,NNE,19,0.0,0.0,96,-99.99,,,0.00,0.000000,,2013-07-06 10:53:00,
2013-07-06 04:01:00,50.0,49.0,-100.00,NNE,19,0.0,0.0,96,-99.99,,,0.00,0.000000,,2013-07-06 11:01:00,
2013-07-06 04:33:00,53.0,51.0,-100.00,East,99,0.0,0.0,94,0.00,,,0.00,0.000000,,2013-07-06 11:33:00,
2013-07-06 04:43:00,53.0,51.0,-100.00,East,99,0.0,0.0,94,0.00,,,0.00,0.000000,,2013-07-06 11:43:00,
2013-07-06 04:53:00,53.0,51.0,-100.00,East,99,0.0,0.0,94,0.00,,,0.00,0.000000,,2013-07-06 11:53:00,
2013-07-06 05:01:00,53.0,51.0,-100.00,East,99,0.0,0.0,94,0.00,,,0.00,0.000000,,2013-07-06 12:01:00,
2013-07-06 05:33:00,53.0,52.0,-100.00,SE,126,0.0,0.0,95,0.00,,,0.00,0.000000,,2013-07-06 12:33:00,
2013-07-06 05:43:00,53.0,52.0,-100.00,SE,126,0.0,0.0,95,0.00,,,0.00,0.000000,,2013-07-06 12:43:00,
2013-07-06 05:52:00,53.0,52.0,-100.00,SE,126,0.0,0.0,95,0.00,,,0.00,0.000000,,2013-07-06 12:52:00,
2013-07-06 06:01:00,53.0,52.0,-100.00,SE,126,0.0,0.0,95,0.00,,,0.00,0.000000,,2013-07-06 13:01:00,
2013-07-06 06:43:00,54.0,53.0,-100.00,ENE,57,0.0,2.0,96,0.00,,,0.00,0.000000,,2013-07-06 13:43:00,
2013-07-06 06:52:00,54.0,53.0,-100.00,ENE,57,0.0,2.0,96,0.00,,,0.00,0.000000,,2013-07-06 13:52:00,
2013-07-06 07:02:00,54.0,53.0,-100.00,ENE,57,0.0,2.0,96,0.00,,,0.00,0.000000,,2013-07-06 14:02:00,
2013-07-06 07:42:00,54.0,52.0,-100.00,NNW,327,1.0,2.0,93,0.00,,,0.00,12.000000,,2013-07-06 14:42:00,
2013-07-06 07:53:00,54.0,52.0,-100.00,NNW,327,1.0,2.0,93,0.00,,,0.00,12.000000,,2013-07-06 14:53:00,
2013-07-06 08:02:00,54.0,52.0,-100.00,NNW,327,1.0,2.0,93,0.00,,,0.00,12.000000,,2013-07-06 15:02:00,
2013-07-06 08:33:00,55.0,52.0,-100.00,ESE,106,2.0,4.0,89,0.00,,,0.00,47.000000,,2013-07-06 15:33:00,
2013-07-06 08:43:00,55.0,52.0,-100.00,ESE,106,2.0,4.0,89,0.00,,,0.00,47.000000,,2013-07-06 15:43:00,
2013-07-06 08:53:00,55.0,52.0,-100.00,ESE,106,2.0,4.0,89,0.00,,,0.00,47.000000,,2013-07-06 15:53:00,
2013-07-06 09:03:00,55.0,52.0,-100.00,ESE,106,2.0,4.0,89,0.00,,,0.00,47.000000,,2013-07-06 16:03:00,
2013-07-06 09:49:00,57.0,51.0,-100.00,NNW,346,1.0,4.0,81,0.00,,,0.00,116.000000,,2013-07-06 16:49:00,
2013-07-06 10:04:00,58.0,52.0,-100.00,SSE,160,3.0,6.0,79,0.00,,,0.00,193.000000,,2013-07-06 17:04:00,
2013-07-06 10:57:00,58.0,52.0,-100.00,SSE,160,3.0,6.0,79,0.00,,,0.00,193.000000,,2013-07-06 17:57:00,
2013-07-06 11:04:00,59.0,52.0,-100.00,NE,34,2.0,8.0,79,0.00,,,0.00,234.000000,,2013-07-06 18:04:00,
2013-07-06 11:58:00,59.0,52.0,-100.00,NE,34,2.0,8.0,79,0.00,,,0.00,234.000000,,2013-07-06 18:58:00,
2013-07-06 12:48:00,62.0,53.0,-100.00,North,354,2.0,6.0,73,0.00,,,0.00,362.000000,,2013-07-06 19:48:00,
2013-07-06 13:01:00,62.0,53.0,-100.00,North,354,2.0,6.0,73,0.00,,,0.00,362.000000,,2013-07-06 20:01:00,
2013-07-06 13:04:00,64.0,53.0,-100.00,NW,324,3.0,8.0,68,0.00,,,0.00,509.000000,,2013-07-06 20:04:00,
2013-07-06 13:50:00,64.0,53.0,-100.00,NW,324,3.0,8.0,68,0.00,,,0.00,509.000000,,2013-07-06 20:50:00,
2013-07-06 14:48:00,67.0,53.0,-100.00,NNW,343,3.0,7.0,60,0.00,,,0.00,803.000000,,2013-07-06 21:48:00,
2013-07-06 14:59:00,67.0,53.0,-100.00,NNW,343,3.0,7.0,60,0.00,,,0.00,803.000000,,2013-07-06 21:59:00,
2013-07-06 15:04:00,67.0,53.0,-100.00,NE,39,4.0,10.0,61,0.00,,,0.00,927.000000,,2013-07-06 22:04:00,
2013-07-06 15:48:00,67.0,53.0,-100.00,NE,39,4.0,10.0,61,0.00,,,0.00,927.000000,,2013-07-06 22:48:00,
2013-07-06 16:04:00,64.0,52.0,-100.00,SSE,157,6.0,14.0,66,-99.99,,,0.00,816.000000,,2013-07-06 23:04:00,
2013-07-06 16:50:00,64.0,52.0,-100.00,SSE,157,6.0,14.0,66,-99.99,,,0.00,816.000000,,2013-07-06 23:50:00,
2013-07-06 16:56:00,64.0,52.0,-100.00,SSE,157,6.0,14.0,66,-99.99,,,0.00,816.000000,,2013-07-06 23:56:00,
2013-07-06 17:49:00,65.0,54.0,-100.00,NW,317,2.0,13.0,67,0.00,,,0.00,605.000000,,2013-07-07 00:49:00,
2013-07-06 18:56:00,63.0,53.0,-100.00,West,275,3.0,10.0,70,0.00,,,0.00,427.000000,,2013-07-07 01:56:00,
2013-07-06 19:03:00,63.0,53.0,-100.00,West,275,3.0,10.0,70,0.00,,,0.00,427.000000,,2013-07-07 02:03:00,
2013-07-06 21:00:00,57.0,52.0,-100.00,NW,326,2.0,5.0,83,0.00,,,0.00,26.000000,,2013-07-07 04:00:00,
2013-07-06 21:01:00,57.0,52.0,-100.00,NW,326,2.0,5.0,83,0.00,,,0.00,26.000000,,2013-07-07 04:01:00,
2013-07-06 21:31:00,57.0,52.0,-100.00,NNW,333,1.0,4.0,84,0.00,,,0.00,3.000000,,2013-07-07 04:31:00,
2013-07-06 21:41:00,57.0,52.0,-100.00,NNW,333,1.0,4.0,84,0.00,,,0.00,3.000000,,2013-07-07 04:41:00,
2013-07-06 21:51:00,57.0,52.0,-100.00,NNW,333,1.0,4.0,84,0.00,,,0.00,3.000000,,2013-07-07 04:51:00,
2013-07-06 22:01:00,57.0,52.0,-100.00,NNW,333,1.0,4.0,84,0.00,,,0.00,3.000000,,2013-07-07 05:01:00,
2013-07-06 22:31:00,56.0,52.0,-100.00,West,263,2.0,4.0,85,0.00,,,0.00,0.000000,,2013-07-07 05:31:00,
2013-07-06 22:41:00,56.0,52.0,-100.00,West,263,2.0,4.0,85,0.00,,,0.00,0.000000,,2013-07-07 05:41:00,
2013-07-06 22:51:00,56.0,52.0,-100.00,West,263,2.0,4.0,85,0.00,,,0.00,0.000000,,2013-07-07 05:51:00,
2013-07-06 23:01:00,56.0,52.0,-100.00,West,263,2.0,4.0,85,0.00,,,0.00,0.000000,,2013-07-07 06:01:00,
2013-07-06 23:32:00,55.0,51.0,-100.00,WNW,293,1.0,4.0,87,0.00,,,0.00,0.000000,,2013-07-07 06:32:00,
2013-07-06 23:43:00,55.0,51.0,-100.00,WNW,293,1.0,4.0,87,0.00,,,0.00,0.000000,,2013-07-07 06:43:00,
2013-07-06 23:52:00,55.0,51.0,-100.00,WNW,293,1.0,4.0,87,0.00,,,0.00,0.000000,,2013-07-07 06:52:00,